Weather History for Sisseton, SD

Change the Weather History Date:

Friday, January 4, 2013

  Actual Average Record
Temperature  
Mean Temperature 19 °F 13 °F  
Max Temperature 33 °F 23 °F 49 °F (2012)
Min Temperature 5 °F 4 °F -26 °F (1968)
Degree Days  
Heating Degree Days 46 52  
Month to date heating degree days 193 208  
Since 1 July heating degree days 3568 3547  
Cooling Degree Days 0 0  
Month to date cooling degree days 0 0  
Year to date cooling degree days 0 0  
Moisture  
Dew Point 14 °F    
Average Humidity 75    
Maximum Humidity 96    
Minimum Humidity 53    
Precipitation  
Precipitation 0.00 in 0.02 in 2.67 in (1997)
Month to date precipitation 0.02 0.06  
Year to date precipitation 0.02 0.06  
Snow  
Snow 0.00 in - - ()
Month to date snowfall 0.2  
Since 1 July snowfall 9.2  
Snow Depth 5.00 in    
Sea Level Pressure  
Sea Level Pressure 30.12 in    
Wind  
Wind Speed 6 mph (NW)    
Max Wind Speed 35 mph    
Max Gust Speed 43 mph    
T = Trace of Precipitation, MM = Missing Value Source: NWS Daily Summary

Daily Weather History Graph

Daily Weather History Graph

Search for Another Location

Airport:

Trip Planner

Search our weather history database for the weather conditions in past years. The results will help you decide how hot, cold, wet, or windy it might be!

Date:

Astronomy

Jan. 04, 2013 Rise Set
Actual Time 8:08 AM CST 4:57 PM CST
Civil Twilight 7:34 AM CST 5:31 PM CST
Nautical Twilight 6:57 AM CST 6:09 PM CST
Astronomical Twilight 6:21 AM CST 6:45 PM CST
Moon No Moon Rise 11:28 AM CST (1/4)
Length of Visible Light 9h 57m
Length of Day
8h 49m
Waning Gibbous, 55% of the Moon is Illuminated
Jan 4
Waning Gibbous
Jan 4
Last Quarter
Jan 11
New
Jan 18
First Quarter
Jan 26
Full

Hourly Weather History & Observations

Time (CST) Temp. Windchill Dew Point Humidity Pressure Visibility Wind Dir Wind Speed Gust Speed Precip Events Conditions
12:56 AM 26.1 °F 12.7 °F 14.0 °F 60% 30.06 in - North 18.4 mph 33.4 mph N/A   Unknown
1:03 AM 26.6 °F 12.4 °F 14.0 °F 59% 29.97 in - NNW 21.9 mph 27.6 mph N/A   Unknown
1:56 AM 26.1 °F 12.7 °F 12.9 °F 58% 30.06 in - NW 18.4 mph - N/A   Unknown
2:56 AM 26.1 °F 13.1 °F 12.9 °F 58% 30.07 in - WNW 17.3 mph - N/A   Unknown
3:56 AM 23.0 °F 13.1 °F 12.9 °F 65% 30.09 in - WNW 9.2 mph - N/A   Unknown
4:56 AM 21.9 °F 15.7 °F 12.0 °F 66% 30.09 in - NNE 4.6 mph - N/A   Unknown
5:56 AM 21.0 °F 16.2 °F 10.9 °F 65% 30.10 in - WNW 3.5 mph - N/A   Unknown
6:56 AM 19.9 °F - 10.9 °F 68% 30.12 in - Calm Calm - N/A   Unknown
7:56 AM 17.1 °F 10.0 °F 9.0 °F 71% 30.12 in - WNW 4.6 mph - N/A   Unknown
8:56 AM 18.0 °F 7.7 °F 10.0 °F 71% 30.15 in - WNW 8.1 mph - N/A   Unknown
9:56 AM 23.0 °F 14.7 °F 12.9 °F 65% 30.16 in - WNW 6.9 mph - N/A   Unknown
10:56 AM 28.0 °F 18.6 °F 18.0 °F 66% 30.15 in - NNW 10.4 mph - N/A   Unknown
11:56 AM 30.9 °F 26.2 °F 21.0 °F 67% 30.14 in - NNW 4.6 mph - N/A   Unknown
12:56 PM 33.1 °F 30.0 °F 21.9 °F 64% 30.12 in - North 3.5 mph - N/A   Unknown
1:56 PM 32.0 °F 25.6 °F 23.0 °F 69% 30.11 in - North 6.9 mph - N/A   Unknown
2:56 PM 32.0 °F 28.7 °F 23.0 °F 69% 30.12 in - ENE 3.5 mph - N/A   Unknown
3:56 PM 28.0 °F 21.7 °F 21.0 °F 75% 30.15 in - NE 5.8 mph - N/A   Unknown
4:56 PM 23.0 °F - 18.0 °F 81% 30.17 in - Calm Calm - N/A   Unknown
5:56 PM 21.0 °F - 17.1 °F 85% 30.16 in - Calm Calm - N/A   Unknown
6:56 PM 18.0 °F 12.7 °F 14.0 °F 84% 30.15 in - SSW 3.5 mph - N/A   Unknown
7:56 PM 14.0 °F - 12.0 °F 92% 30.16 in - Calm Calm - N/A   Unknown
8:56 PM 10.9 °F - 8.1 °F 88% 30.16 in - Calm Calm - N/A   Unknown
9:56 PM 10.9 °F - 8.1 °F 88% 30.13 in - Calm Calm - N/A   Unknown
10:56 PM 9.0 °F 2.4 °F 6.1 °F 88% 30.13 in - SSW 3.5 mph - N/A   Unknown
11:56 PM 7.0 °F -1.7 °F 3.0 °F 84% 30.10 in - NNW 4.6 mph - N/A   Unknown